Regional Weather Roundup
Issued by NWS

Home | Current Version | Previous Version | Graphics & Text | Print | Product List | Glossary On
Versions: 1 2 3 4 5 6 7 8 9 10 11 12 13 14 15 16 17 18 19 20 21 22 23 24 25 26 27 28 29 30 31 32 33 34 35 36 37 38 39 40 41 42 43 44 45 46 47 48 49 50
000
ASUS43 KLOT 212208
RWRIL

ILLINOIS REGIONAL WEATHER ROUNDUP
NATIONAL WEATHER SERVICE CHICAGO/ROMEOVILLE IL
400 PM CST SAT JAN 21 2017

NOTE: "FAIR" INDICATES FEW OR NO CLOUDS BELOW 12,000 FEET WITH NO
SIGNIFICANT WEATHER AND/OR OBSTRUCTIONS TO VISIBILITY.

* THESE STATIONS ARE NOT UNDER NWS QUALITY CONTROL. THEY ALSO MAY NOT
  REPORT WEATHER SUCH AS PRECIPITATION OR FOG.

ILZ001-002-007-009-015-016-024-212300-
NORTHWEST ILLINOIS

CITY           SKY/WX    TMP DP  RH WIND       PRES   REMARKS
MOLINE         MOCLDY    49  42  77 W10       29.50R
STERLING*      PTCLDY    49  45  86 W10       29.50R
SAVANNA*       CLOUDY    44  42  91 SW8       29.49R
$$

ILZ003-004-008-010-011-017-018-212300-
NORTH CENTRAL ILLINOIS

CITY           SKY/WX    TMP DP  RH WIND       PRES   REMARKS
ROCKFORD       PTCLDY    52  44  74 SW8       29.49R
FREEPORT*      CLOUDY    42  42  99 W7        29.51R FOG
ROCHELLE*      CLEAR     51  47  86 SW9       29.49R
DE KALB*       CLEAR     52  45  76 SW10      29.50R
$$

ILZ005-006-012>014-019>023-212300-
NORTHEAST ILLINOIS

CITY           SKY/WX    TMP DP  RH WIND       PRES   REMARKS
CHICAGO-OHARE  PTCLDY    57  45  64 SW13      29.47R
CHICAGO-MIDWAY PTCLDY    59  45  59 SW14      29.49R
AURORA         CLEAR     55  44  66 MISG      29.50R
LANSING*       PTCLDY    58  52  79 SW10      29.50R
JOLIET*        CLEAR     59  46  62 SW7       29.50R
WAUKEGAN       CLEAR     55  43  63 SW10G21   29.46R
DUPAGE AIRPORT CLEAR     55  43  63 SW13      29.48R
KANKAKEE*      PTCLDY    58  49  72 SW10      29.52R
WHEELING       CLEAR     57  42  57 SW8       29.48R
MORRIS*        CLEAR     57  46  66 CALM      29.49R
ROMEOVILLE*    CLEAR     57  48  73 SW10G18   29.50R
NORTHERLY ISL    N/A     59  43  55 S9          N/A
$$

LMZ740>746-212300-
SOUTHERN LAKE MICHIGAN

STATION/POSITION SKY/WX   TEMP    WIND        PRES    VSBY  WAVE
                          AIR SEA DIR/SP/G                  HT/PER
                          (F)     (DEG/KT/KT) (MB)    (MI)  (FT/S)
HARRISON CRIB              59     210/ 16/ 17   N/A
BURNHAM HARBOR             59     190/  7/ 16   N/A
CALUMET HARBOR             58     190/ 10/ 21  997.9R
BURNS HARBOR               58     200/ 15/ 19  999.3R
MICHIGAN CITY              59     170/ 13/ 17   N/A
$$

ILZ025>027-034>036-040-047-049-050-058-095>099-212300-
WEST-CENTRAL ILLINOIS

CITY           SKY/WX    TMP DP  RH WIND       PRES   REMARKS
QUINCY         SUNNY     56  43  61 SW12      29.50R
GALESBURG*     PTCLDY    53  45  76 SW12      29.50R
MACOMB*        SUNNY     55  46  73 W10       29.52R
JACKSONVILLE*  SUNNY     61  42  51 SW7       29.51R
PITTSFIELD*    SUNNY     61  42  49 SW7       29.52R
$$

ILZ028>032-037-038-041>044-048-051>054-059>061-212300-
CENTRAL ILLINOIS

CITY           SKY/WX    TMP DP  RH WIND       PRES   REMARKS
PONTIAC        CLEAR     58  48  67 SW9       29.52R
BLOOMINGTON    CLEAR     59  46  62 W13       29.52R
DECATUR        CLEAR     62  49  62 SW12      29.51R
PEORIA         CLEAR     58  42  55 SW13      29.50R
LACON*         CLEAR     57  43  59 W9        29.49R
LINCOLN*       CLEAR     63  46  55 W6        29.50S
SPRINGFIELD    CLEAR     63  46  54 SW9       29.51R
TAYLORVILLE    CLEAR     62  48  60 SW8       29.51S
$$

ILZ033-039-045-046-055>057-062-063-212300-
EAST-CENTRAL ILLINOIS

CITY           SKY/WX    TMP DP  RH WIND       PRES   REMARKS
CHAMPAIGN      CLEAR     61  50  67 SW10      29.52R
RANTOUL*       CLEAR     62  53  72 SW9       29.52R
MATTOON        CLEAR     63  48  58 MISG      29.52S
PARIS*         CLEAR     61  54  77 S12       29.55R
$$

ILZ079-100>102-212300-
SOUTHWEST ILLINOIS

CITY           SKY/WX    TMP DP  RH WIND       PRES   REMARKS
ALTON          MOSUNNY   64  45  48 S9        29.50S
BELLEVILLE     SUNNY     67  48  49 VRB3      29.49S
CAHOKIA*       SUNNY     69  43  38 S9        29.49S
SPARTA*        MOSUNNY   66  53  62 S9        29.53S
$$

ILZ064>066-069>071-074>076-080>082-084>086-088>090-092>094-212300-
SOUTH-CENTRAL ILLINOIS

CITY           SKY/WX    TMP DP  RH WIND       PRES   REMARKS
CARBONDALE     CLOUDY    64  54  69 SW16      29.54S
CAIRO*         CLOUDY    65  53  64 SW7       29.55F
EFFINGHAM*     PTCLDY    64  52  64 S5        29.54S
MARION         PTSUNNY   66  54  63 S12       29.55F
MT. VERNON     MOSUNNY   65  53  65 S10       29.54S
CENTRALIA*     MOSUNNY   67  56  70 S9        29.52S
SALEM*         MOSUNNY   67  54  62 S12       29.52F
METROPOLIS*    CLOUDY    67  50  53 CALM      29.56S
$$

ILZ067-068-072-073-078-083-087-091-212300-
SOUTHEAST ILLINOIS

CITY           SKY/WX    TMP DP  RH WIND       PRES   REMARKS
LAWRENCEVILLE  CLEAR     64  53  67 SW10      29.56S
FLORA*         CLEAR     66  56  69 S9        29.54S
FAIRFIELD*     MOSUNNY   66  53  62 S5        29.53F
HARRISBURG*    MOSUNNY   66  53  61 S7        29.55F
ROBINSON*      PTCLDY    64  54  70 SW10      29.56S
CARMI*         CLEAR     65  54  69 S9        29.54F
$$

ABBREVIATIONS USED IN REMARKS
   TC - TEMPERATURE IN CELSIUS
  WCI - WIND CHILL INDEX
   HX - HEAT INDEX
  VSB - VISIBILITY
$$





USA.gov is the U.S. government's official web portal to all federal, state and local government web resources and services.